Location: East Guldeford
(50.9500°N, 0.7500°E)
Time: 23:38:38
(UTC+00:00)

Daily predictions for brighter satellites

Satellite Brightness Start Highest point End
(mag) Time Altitude Azimuth Time Altitude Azimuth Time Altitude Azimuth
STARLINK-1123 3.9 20:29:34 10° W 20:33:43 72° N 20:37:52 10° ENE
STARLINK-1107 3.6 20:30:16 10° WNW 20:34:25 78° SSW 20:38:33 10° ESE
STARLINK-1091 4.0 20:32:27 10° WNW 20:36:36 67° N 20:40:43 10° E
Meteor 1-18 Rocket 4.3 20:32:06 10° S 20:37:35 64° E 20:43:11 10° NNE
Lacrosse 5 2.4 20:33:20 10° WNW 20:38:21 58° NNE 20:43:21 10° E
STARLINK-1097 4.0 20:34:34 10° W 20:38:42 71° N 20:42:52 10° ENE
STARLINK-1066 3.7 20:35:15 10° WNW 20:39:23 74° SSW 20:43:31 10° ESE
NOSS 2-3 (E) 4.2 20:36:19 10° S 20:40:18 37° ESE 20:44:55 10° NE
STARLINK-1072 4.0 20:37:26 10° WNW 20:41:35 68° N 20:45:44 10° E
ASTEX 1 4.5 20:37:22 10° SSW 20:42:02 45° W 20:46:47 10° NNW
Cosmos 1844 Rocket 3.0 20:36:46 10° SSW 20:42:27 78° WNW 20:48:09 10° NNE
Terra 3.1 20:39:13 10° ESE 20:43:15 28° ENE 20:47:17 10° N
STARLINK-1099 4.0 20:39:32 10° W 20:43:40 69° N 20:47:49 10° ENE
STARLINK-1228 3.2 20:40:50 10° SW 20:44:04 49° SSE 20:47:19 10° ENE
STARLINK-1081 3.7 20:40:14 10° WNW 20:44:22 70° SSW 20:48:30 10° ESE
STARLINK-1096 3.9 20:42:27 10° WNW 20:46:36 69° N 20:50:45 10° E
STARLINK-1234 3.1 20:44:41 10° SW 20:47:41 47° SSE 20:50:43 10° ENE
STARLINK-1104 4.0 20:44:32 10° W 20:48:40 68° N 20:52:49 10° ENE
IGS 5A 3.5 20:44:47 10° SSE 20:48:54 67° ENE 20:53:03 10° N
STARLINK-1212 3.3 20:46:10 10° SW 20:49:05 38° SSE 20:52:00 10° E
STARLINK-1070 3.7 20:45:12 10° WNW 20:49:19 67° SSW 20:53:26 10° ESE
STARLINK-1209 3.0 20:46:23 10° SW 20:49:26 51° SSE 20:52:31 10° ENE
STARLINK-1105 3.3 20:46:39 10° SW 20:49:33 38° SSE 20:52:28 10° E
Cosmos 1300 Rocket 4.2 20:45:56 10° N 20:50:10 41° ENE 20:54:23 10° SE
STARLINK-1247 3.3 20:47:32 10° SW 20:50:28 39° SSE 20:53:24 10° E
Cosmos 2084 Rocket 3.4 20:46:30 10° SW 20:50:47 81° SE 20:55:10 10° NE
STARLINK-1227 3.3 20:47:59 10° SW 20:50:55 39° SSE 20:53:50 10° E
Crew Dragon 0.0 20:49:21 10° W 20:51:26 73° N 20:53:39 10° E
STARLINK-1079 3.9 20:47:25 10° WNW 20:51:34 71° N 20:55:43 10° E
Cosmos 407 Rocket 3.9 20:46:23 10° NNW 20:51:41 67° WSW 20:56:59 10° S
STARLINK-1226 3.3 20:48:50 10° SW 20:51:47 39° SSE 20:54:43 10° E
Cosmos 1515 3.7 20:48:02 10° S 20:51:49 66° E 20:55:37 10° NNE
Okean 3 4.1 20:48:44 10° SSE 20:52:43 38° E 20:56:44 10° NNE
STARLINK-1215 3.3 20:49:46 10° SW 20:52:43 40° SSE 20:55:41 10° ENE
STARLINK-1154 4.4 20:49:53 10° SSW 20:53:29 29° SE 20:57:06 10° E
STARLINK-1144 4.0 20:49:31 10° W 20:53:40 67° N 20:57:48 10° ENE
STARLINK-1069 3.8 20:50:11 10° WNW 20:54:17 63° SSW 20:58:21 10° SE
STARLINK-1217 3.2 20:51:31 10° SW 20:54:29 41° SSE 20:57:27 10° ENE
USA 245 2.8 20:51:32 10° SSE 20:55:14 88° ENE 20:58:12 10° NNW
STARLINK-1229 3.2 20:52:26 10° SW 20:55:23 42° SSE 20:58:22 10° ENE
STARLINK-1270 3.2 20:53:16 10° SW 20:56:15 42° SSE 20:59:14 10° ENE
STARLINK-1116 3.9 20:52:24 10° WNW 20:56:34 72° N 21:00:42 10° E
STARLINK-1189 3.2 20:55:06 10° SW 20:58:05 44° SSE 21:01:05 10° ENE
STARLINK-1197 4.3 20:54:45 10° SSW 20:58:26 31° SE 21:02:07 10° E
STARLINK-1103 4.0 20:54:32 10° W 20:58:39 66° N 21:02:48 10° ENE
STARLINK-1188 3.1 20:55:58 10° SW 20:58:58 44° SSE 21:01:58 10° ENE
STARLINK-1085 3.8 20:55:11 10° WNW 20:59:16 60° SSW 21:03:09 11° SE
Cosmos 2221 Rocket 4.1 20:55:20 10° SSE 20:59:35 43° E 21:03:54 10° NNE
STARLINK-1235 2.9 20:56:36 10° SW 20:59:37 53° SSE 21:02:39 10° ENE
Okean 1-7 3.2 20:55:39 10° SSW 20:59:57 75° WNW 21:04:14 10° N
STARLINK-1187 3.0 20:57:03 10° SW 21:00:03 49° SSE 21:03:03 10° ENE
NOSS 2-3 (D) 3.9 20:55:58 10° SSW 21:00:07 48° SE 21:05:02 10° NE
COSMOS 2406 3.4 20:54:24 10° NNW 21:00:13 81° WSW 21:05:59 10° SSE
STARLINK-1191 3.1 20:58:26 10° SW 21:01:25 46° SSE 21:04:26 10° ENE
STARLINK-1221 3.1 20:59:19 10° SW 21:02:18 46° SSE 21:05:18 10° ENE
STARLINK-1222 3.1 21:00:11 10° SW 21:03:11 47° SSE 21:06:12 10° ENE
STARLINK-1198 4.2 20:59:36 10° SSW 21:03:21 33° SE 21:07:06 10° E
STARLINK-1101 4.1 20:59:31 10° W 21:03:38 65° N 21:07:47 10° ENE
Cosmos 371 Rocket 4.5 21:00:07 10° SSE 21:04:00 25° E 21:07:56 10° NE
STARLINK-1214 3.0 21:01:06 10° SW 21:04:06 48° SSE 21:07:07 10° ENE
STARLINK-1086 3.9 21:00:10 10° WNW 21:04:14 57° SSW 21:07:56 12° SE
Resurs 01 Rocket 3.0 21:01:45 10° SSW 21:05:51 36° W 21:09:59 10° NNW
Meteor 2-4 Rocket 3.7 21:00:35 10° S 21:05:51 58° E 21:11:07 10° NNE
Cosmos 1844 4.2 21:00:22 10° SW 21:06:00 67° WNW 21:11:46 10° NNE
Abrixas rocket 2.4 21:03:20 10° WSW 21:06:08 39° SSE 21:08:55 10° E
STARLINK-1094 3.8 21:02:23 10° WNW 21:06:33 76° NNE 21:10:42 10° E
USA 215 3.6 21:00:38 10° E 21:07:08 67° NNE 21:13:37 10° WNW
SPOT 1/Viking Rocket 3.6 21:02:48 10° SSE 21:07:59 87° ENE 21:13:11 10° NNW
STARLINK-1199 4.2 21:04:32 10° SSW 21:08:20 36° SE 21:12:08 10° ENE
STARLINK-1102 4.1 21:04:32 10° W 21:08:39 65° N 21:12:47 10° E
Sich 1 Rocket 3.8 21:04:25 10° NNW 21:09:00 77° W 21:13:35 10° S
STARLINK-1095 3.9 21:05:09 10° WNW 21:09:11 53° SSW 21:12:43 13° SE
USA 229 DEB 3.7 21:04:17 10° SW 21:10:53 87° NW 21:17:54 10° NE
USA 229 3.7 21:04:25 10° SW 21:11:00 87° NW 21:17:59 10° NE
STARLINK-1117 3.7 21:07:22 10° WNW 21:11:32 78° NNE 21:15:41 10° E
Meteor 1-4 Rocket 2.4 21:08:21 10° S 21:11:48 85° ESE 21:15:17 10° NNE
STARLINK-1210 4.1 21:09:26 10° SSW 21:13:16 38° SE 21:17:07 10° ENE
STARLINK-1111 4.1 21:09:31 10° W 21:13:38 65° N 21:17:46 10° E
STARLINK-1077 4.0 21:10:08 10° WNW 21:14:09 50° SSW 21:17:29 14° SE
STARLINK-1078 3.7 21:12:20 10° WNW 21:16:30 80° NNE 21:20:39 10° ESE
SPOT 5 3.2 21:12:28 12° SSE 21:17:13 70° ENE 21:22:31 10° N
STARLINK-1219 4.0 21:14:20 10° SW 21:18:13 40° SSE 21:22:07 10° ENE
Cosmos 1624 Rocket 4.0 21:13:12 10° SSW 21:18:31 86° ESE 21:23:55 10° NNE
STARLINK-1073 4.1 21:14:31 10° W 21:18:38 64° N 21:22:46 10° E
NOSS 3-1 (C) 3.7 21:13:18 10° SW 21:18:55 75° NW 21:25:37 10° NE
STARLINK-1075 4.1 21:15:07 10° WNW 21:19:07 47° SSW 21:22:16 15° SE
OPS 8737 4.1 21:15:37 10° SW 21:19:08 77° SE 21:22:03 10° NE
NOSS 3-1 (A) 3.3 21:14:20 10° SW 21:19:55 80° SE 21:26:31 10° NE
ATLAS CENTAUR R/B 2.7 21:18:33 10° W 21:20:33 27° NNW 21:22:11 10° NE
STARLINK-1108 3.7 21:17:19 10° WNW 21:21:29 83° NNE 21:25:39 10° ESE
Cosmos 2279 Rocket 4.0 21:16:23 10° N 21:22:40 82° E 21:28:35 12° SSE
STARLINK-1211 3.9 21:19:14 10° SW 21:23:10 43° SSE 21:27:06 10° ENE
STARLINK-1121 4.1 21:19:29 10° W 21:23:36 64° N 21:27:44 10° E
Aureole 1 Rocket 4.1 21:19:55 10° NW 21:23:37 39° WSW 21:28:19 10° S
STARLINK-1093 4.2 21:20:07 10° WNW 21:24:05 44° SSW 21:27:04 16° SE
Cosmos 1140 Rocket 4.3 21:20:36 10° NW 21:25:33 46° WSW 21:30:31 10° S
Okean 2 Rocket 3.1 21:21:43 10° NNW 21:26:11 81° W 21:30:13 12° S
STARLINK-1071 3.6 21:22:18 10° WNW 21:26:29 85° NNE 21:30:38 10° ESE
CENTAUR R/B 4.3 21:20:09 10° NW 21:26:58 38° NNE 21:34:40 10° E
STARLINK-1245 3.8 21:24:10 10° SW 21:28:08 46° SSE 21:32:08 10° ENE
STARLINK-1106 4.1 21:24:29 10° W 21:28:36 64° N 21:32:44 10° E
STARLINK-1074 4.2 21:25:07 10° WNW 21:29:02 42° SSW 21:31:51 17° SSE
STARLINK-1110 3.6 21:26:30 10° WNW 21:30:41 88° NNE 21:34:41 11° ESE
NOSS 2-3 (C) 3.7 21:26:27 10° SW 21:30:50 83° SE 21:36:09 10° NE
BREEZE-M DEB (TANK) 4.4 21:11:59 10° WNW 21:30:52 75° SSW 21:35:39 12° ESE
SAR-Lupe-2 4.1 21:27:54 10° N 21:31:29 60° WNW 21:35:01 10° SSW
Cosmos 1371 Rocket 4.4 21:27:15 10° SSW 21:32:29 68° WNW 21:37:42 10° NNE
STARLINK-1233 3.8 21:29:05 10° SW 21:33:05 49° SSE 21:37:06 10° ENE
STARLINK-1112 4.1 21:29:29 10° W 21:33:36 64° N 21:37:44 10° E
Cosmos 1850 Rocket 4.2 21:28:58 10° NNW 21:34:19 66° ENE 21:38:31 16° SE
ERBS 3.3 21:32:41 15° S 21:34:35 24° SE 21:37:19 10° ENE
STARLINK-1124 3.6 21:32:16 10° WNW 21:36:27 89° S 21:40:14 12° ESE
STARLINK-1204 3.7 21:34:02 10° SW 21:38:03 52° SSE 21:42:06 10° ENE
STARLINK-1128 4.0 21:34:29 10° W 21:38:37 65° N 21:42:44 10° E
STARLINK-1088 4.4 21:35:06 10° WNW 21:38:56 37° SW 21:41:24 19° SSE
Cosmos 2151 Rocket 3.7 21:34:39 10° NNW 21:39:12 85° W 21:42:53 15° S
Cosmos 2082 Rocket 2.2 21:34:03 10° NNW 21:39:49 86° ENE 21:44:18 17° SSE
STARLINK-1122 3.6 21:37:15 10° WNW 21:41:25 86° SSW 21:45:00 14° ESE
STARLINK-1238 3.7 21:38:57 10° SW 21:43:00 55° SSE 21:47:03 10° ENE
STARLINK-1113 4.0 21:39:28 10° W 21:43:36 65° N 21:47:43 10° E
Okean 1 Rocket 3.4 21:39:26 10° N 21:43:51 53° ENE 21:46:51 19° SSE
Intercosmos 24 4.3 21:40:25 10° NNW 21:44:16 53° W 21:47:11 14° S
ERS-1 Rocket 3.3 21:40:28 13° S 21:44:58 62° WSW 21:49:59 10° NNW
SeaSat 1 3.4 21:41:19 10° NE 21:45:38 29° ESE 21:48:18 18° SSE
STARLINK-1126 3.5 21:42:11 10° WNW 21:46:20 82° SSW 21:49:44 15° ESE
STARLINK-1201 3.6 21:43:55 10° SW 21:47:58 59° SSE 21:52:04 10° ENE
Cosmos 1833 Rocket 3.1 21:42:58 10° NW 21:48:28 56° WSW 21:52:51 16° S
STARLINK-1119 4.0 21:44:27 10° WNW 21:48:35 66° N 21:52:43 10° E
SL-4 R/B 1.3 21:47:47 10° NW 21:51:02 71° SW 21:52:33 27° SSE
Cosmos 1805 4.2 21:47:33 10° N 21:51:14 36° ENE 21:53:26 20° SE
STARLINK-1082 3.5 21:47:13 10° WNW 21:51:23 79° SSW 21:54:34 17° ESE
Aureole 2 Rocket 3.9 21:51:13 17° ESE 21:51:25 17° ESE 21:53:33 10° ENE
Meteor 1-15 Rocket 4.4 21:45:37 10° N 21:51:34 77° ENE 21:56:04 18° SSE
STARLINK-1206 3.6 21:48:51 10° SW 21:52:57 62° SSE 21:57:03 10° ENE
STARLINK-1114 4.0 21:49:28 10° WNW 21:53:36 67° N 21:57:43 10° E
STARLINK-1100 3.5 21:52:12 10° WNW 21:56:21 75° SSW 21:59:21 18° ESE
Cosmos 332 Rocket 4.0 21:52:44 16° S 21:56:30 51° ESE 22:01:16 10° NNE
STARLINK-1205 3.5 21:53:48 10° SW 21:57:55 66° SSE 22:02:02 10° ENE
STARLINK-1130 (DARKSAT) 3.9 21:54:25 10° WNW 21:58:34 68° N 22:02:42 10° E
Cosmos 2369 Rocket 4.1 21:57:13 11° ESE 21:58:52 12° E 22:00:51 10° ENE
ISS -3.7 21:56:15 10° W 21:59:36 61° SSW 22:01:21 25° SE
USA 238 DEB 4.4 21:54:09 10° NW 22:01:07 54° NE 22:08:19 10° ESE
USA 238 4.5 21:54:14 10° NW 22:01:12 53° NE 22:08:25 10° ESE
Cosmos 2056 Rocket 4.5 21:56:18 10° SW 22:01:14 48° WNW 22:06:13 10° NNE
STARLINK-1083 3.6 21:57:11 10° WNW 22:01:19 72° SSW 22:04:07 20° ESE
STARLINK-67 3.0 21:59:32 10° WNW 22:01:26 40° N 22:02:31 19° ENE
Cosmos 1066 Rocket 4.2 21:58:19 18° S 22:02:20 60° E 22:07:38 10° NNE
STARLINK-1218 3.5 21:58:45 10° WSW 22:02:52 69° SSE 22:07:00 10° ENE
STARLINK-1084 3.9 21:59:25 10° WNW 22:03:33 69° N 22:07:41 10° E
Cosmos 1378 3.9 22:02:29 24° SE 22:04:03 35° E 22:07:29 10° NNE
STARLINK-1125 3.6 22:02:09 10° WNW 22:06:17 68° SSW 22:08:54 21° SE
STARLINK-1254 3.5 22:03:44 10° WSW 22:07:51 73° SSE 22:12:00 10° ENE
STARLINK-1098 3.9 22:04:25 10° WNW 22:08:34 70° N 22:12:42 10° E
Cosmos 1943 Rocket 3.6 22:07:35 17° SE 22:09:26 19° E 22:13:19 10° NE
STARLINK-1109 3.6 22:07:08 10° WNW 22:11:15 65° SSW 22:13:40 23° SE
SL-8 R/B 3.6 22:06:59 10° W 22:11:46 66° S 22:16:33 10° E
STARLINK-1231 3.5 22:08:43 10° WSW 22:12:51 76° SSE 22:17:00 10° ENE
STARLINK-1123 3.8 22:09:23 10° WNW 22:13:33 72° N 22:17:41 10° E
Cosmos 1437 Rocket 2.8 22:12:22 17° SSW 22:15:09 73° WNW 22:18:58 10° N
STARLINK-1246 4.4 22:13:53 24° S 22:15:24 31° SE 22:19:04 10° E
Cosmos 2278 Rocket 2.6 22:10:14 10° SW 22:15:53 67° WNW 22:21:35 10° NNE
STARLINK-1091 3.7 22:12:07 10° WNW 22:16:13 61° SSW 22:18:27 25° SE
STARLINK-1232 3.5 22:13:41 10° WSW 22:17:49 80° SSE 22:21:59 10° ENE
STARLINK-1097 3.8 22:14:22 10° WNW 22:18:32 73° NNE 22:22:40 10° E
STARLINK-1224 4.3 22:18:39 23° S 22:20:21 33° SE 22:24:04 10° E
STARLINK-1228 3.5 22:17:20 10° W 22:20:39 64° N 22:23:59 10° ENE
Terra 2.6 22:17:24 17° SSW 22:20:48 46° W 22:25:25 10° NNW
STARLINK-1072 3.7 22:17:07 10° WNW 22:21:12 58° SSW 22:23:14 27° SE
Lacrosse 5 2.2 22:16:27 10° WNW 22:21:21 50° SW 22:24:01 25° SSE
ALOS 2 4.0 22:19:22 16° ESE 22:22:02 29° ENE 22:25:50 10° N
STARLINK-1208 3.5 22:18:38 10° WSW 22:22:47 83° SSE 22:26:57 10° ENE
STARLINK-1099 3.8 22:19:20 10° WNW 22:23:29 75° N 22:27:38 10° E
STARLINK-1234 3.3 22:20:23 10° W 22:23:29 62° N 22:26:36 10° ENE
STARLINK-1212 3.2 22:21:43 10° W 22:24:49 67° N 22:27:55 10° ENE
Crew Dragon 1.6 22:23:01 10° W 22:24:20 26° WSW 22:24:20 26° WSW
Thor Agena Rocket 3.9 22:19:52 10° NNE 22:25:04 52° E 22:28:05 24° SSE
STARLINK-1105 3.2 22:22:11 10° W 22:25:17 67° N 22:28:23 10° ENE
STARLINK-1225 4.2 22:23:26 23° SSW 22:25:18 35° SE 22:29:06 10° ENE
STARLINK-1209 3.4 22:22:18 10° W 22:25:25 61° N 22:28:34 10° ENE
STARLINK-1096 3.8 22:22:07 10° WNW 22:26:11 54° SSW 22:28:03 29° SE
STARLINK-1247 3.2 22:23:06 10° W 22:26:12 67° NNW 22:29:19 10° ENE
Spot 4 4.1 22:23:24 24° SE 22:26:17 61° ENE 22:31:06 10° N
STARLINK-1227 3.2 22:23:33 10° W 22:26:39 66° NNW 22:29:45 10° ENE
STARLINK-1226 3.2 22:24:25 10° W 22:27:31 66° NNW 22:30:38 10° ENE
STARLINK-1271 3.5 22:23:37 10° WSW 22:27:47 86° SSE 22:31:57 10° ENE
STARLINK-1215 3.2 22:25:21 10° W 22:28:28 66° N 22:31:35 10° ENE
STARLINK-1104 3.7 22:24:20 10° WNW 22:28:29 77° NNE 22:32:37 10° E
STARLINK-1217 3.2 22:27:08 10° W 22:30:13 65° N 22:33:20 10° ENE
STARLINK-1230 4.1 22:28:13 22° SSW 22:30:15 37° SE 22:34:05 10° ENE
BREEZE-M DEB (TANK) 3.7 22:16:30 10° SW 22:30:29 55° SSE 22:34:21 10° E
STARLINK-1079 3.8 22:27:05 10° WNW 22:31:07 51° SSW 22:32:48 30° SSE
STARLINK-1229 3.3 22:28:03 10° W 22:31:09 65° N 22:34:16 10° ENE
NOSS 8 (F) 4.2 22:31:09 39° S 22:31:55 52° SE 22:34:54 10° NE
SL-4 R/B 2.3 22:31:53 22° ENE 22:31:57 22° ENE 22:33:47 10° NNE
STARLINK-1270 3.3 22:28:55 10° W 22:32:01 64° N 22:35:08 10° ENE
Cosmos 1452 Rocket 3.8 22:26:50 10° SW 22:32:05 67° WNW 22:37:23 10° NNE
Cosmos 1544 Rocket 4.5 22:28:25 10° N 22:32:28 37° ENE 22:34:36 23° SE
STARLINK-1154 3.5 22:28:36 10° WSW 22:32:45 90° SSE 22:36:56 10° ENE
STARLINK-1144 3.7 22:29:19 10° WNW 22:33:28 79° NNE 22:37:24 11° ESE
EXPRESS MD2 4.5 22:30:08 14° SSW 22:33:36 43° SE 22:41:22 10° ENE
STARLINK-1189 3.3 22:30:45 10° W 22:33:52 64° N 22:36:58 10° ENE
STARLINK-1188 3.3 22:31:38 10° W 22:34:45 63° N 22:37:51 10° ENE
STARLINK-1243 4.0 22:32:59 21° SSW 22:35:12 40° SE 22:39:06 10° ENE
STARLINK-1235 3.4 22:32:23 10° W 22:35:27 59° N 22:38:32 10° ENE
STARLINK-1187 3.3 22:32:47 10° W 22:35:51 61° N 22:38:55 10° ENE
STARLINK-1116 3.9 22:32:04 10° WNW 22:36:05 48° SSW 22:37:35 32° SSE
Cosmos 1766 3.2 22:32:40 10° NNW 22:36:40 85° WSW 22:38:27 32° S
STARLINK-1191 3.3 22:34:08 10° W 22:37:13 62° N 22:40:18 10° ENE
STARLINK-1197 3.6 22:33:35 10° WSW 22:37:44 87° NNW 22:41:54 10° ENE
SL-27 R/B 3.9 22:34:33 10° N 22:37:50 31° ENE 22:39:37 20° ESE
STARLINK-1221 3.3 22:35:01 10° W 22:38:05 62° N 22:41:10 10° ENE
STARLINK-1103 3.6 22:34:18 10° WNW 22:38:28 82° NNE 22:42:11 13° ESE
STARLINK-1222 3.3 22:35:54 10° W 22:38:59 62° N 22:42:04 10° ENE
STARLINK-1214 3.3 22:36:49 10° W 22:39:54 61° N 22:42:59 10° ENE
STARLINK-1236 3.9 22:37:45 20° SSW 22:40:10 42° SSE 22:44:06 10° ENE
Abrixas rocket 2.1 22:38:32 10° W 22:41:14 48° SSW 22:41:14 48° SSW
Cosmos 1553 Rocket 4.5 22:35:23 10° N 22:41:35 52° ENE 22:45:31 22° SE
Cosmos 1953 4.3 22:38:39 10° NNE 22:41:38 20° ENE 22:43:45 14° ESE
STARLINK-1198 3.6 22:38:32 10° WSW 22:42:41 85° NNW 22:46:52 10° ENE
STARLINK-1101 3.6 22:39:16 10° WNW 22:43:26 84° NNE 22:46:57 14° ESE
Cosmos 371 Rocket 4.0 22:39:23 10° SW 22:44:07 52° WNW 22:48:54 10° NNE
Cosmos 1461 3.2 22:43:04 31° S 22:44:40 48° ESE 22:48:53 10° NE
STARLINK-1094 4.1 22:42:04 10° WNW 22:46:01 43° SSW 22:47:10 34° S
Cosmos 1271 Rocket 4.3 22:46:32 20° ESE 22:47:27 22° E 22:50:30 10° NE
STARLINK-1199 3.6 22:43:33 10° WSW 22:47:43 82° NNW 22:51:53 10° ENE
STARLINK-1102 3.6 22:44:17 10° WNW 22:48:27 87° NNE 22:51:45 16° ESE
Cosmos 2026 Rocket 4.1 22:45:53 24° S 22:49:45 70° E 22:56:04 10° NNE
Aureole 3 Rocket 4.0 22:44:57 10° N 22:49:57 63° ENE 22:54:05 24° SSE
STARLINK-1269 3.8 22:47:16 18° SW 22:50:04 48° SSE 22:54:04 10° ENE
USA 215 3.3 22:45:48 22° SE 22:50:14 62° SW 22:56:44 10° WNW
Cosmos 1758 4.2 22:46:31 10° N 22:50:21 40° ENE 22:52:04 26° SE
STARLINK-1117 4.2 22:47:04 10° WNW 22:50:58 40° SSW 22:51:56 34° S
STARLINK-1210 3.7 22:48:31 10° WSW 22:52:41 80° NNW 22:56:51 10° ENE
STARLINK-1111 3.5 22:49:15 10° WNW 22:53:25 90° SW 22:56:31 17° ESE
Cosmos 1707 4.2 22:53:56 22° ESE 22:54:58 25° E 22:58:11 10° NE
STARLINK-1200 3.7 22:52:04 17° SW 22:55:02 51° SSE 22:59:05 10° ENE
Cosmos 1900 4.4 22:50:29 10° NW 22:55:32 81° NE 22:58:31 25° SE
STARLINK-1078 4.2 22:52:04 10° WNW 22:55:55 37° SW 22:56:42 34° S
Cosmos 1733 3.3 22:52:10 10° NNW 22:55:59 66° W 22:57:26 35° SSW
STARLINK-1219 3.7 22:53:30 10° W 22:57:40 77° NNW 23:01:50 10° ENE
NOSS 2-2 (D) 3.6 22:57:13 37° SE 22:57:42 39° ESE 23:01:27 10° NE
STARLINK-1073 3.5 22:54:14 10° WNW 22:58:24 87° SSW 23:01:19 19° ESE
NOSS 3-2 (C) 4.3 22:51:35 10° NW 22:58:50 69° NE 23:07:06 10° SE
STARLINK-1192 3.6 22:56:50 16° SW 23:00:00 54° SSE 23:04:04 10° ENE
STARLINK-1108 4.3 22:57:04 10° WNW 23:00:52 35° SW 23:01:30 33° SSW
NOSS 8 (H) 4.1 23:00:42 55° SSE 23:01:04 61° SE 23:04:07 10° NE
STARLINK-1211 3.8 22:58:29 10° W 23:02:38 75° NNW 23:06:48 10° ENE
Cosmos 1975 Rocket 3.0 23:00:54 30° S 23:03:04 89° W 23:07:32 10° N
STARLINK-1121 3.5 22:59:12 10° WNW 23:03:21 84° SSW 23:06:04 21° ESE
STARLINK-1244 3.6 23:01:35 15° SW 23:04:57 57° SSE 23:09:02 10° ENE
STARLINK-1071 4.4 23:02:04 10° W 23:05:49 33° SW 23:06:17 32° SSW
STARLINK-1245 3.8 23:03:29 10° W 23:07:38 73° NNW 23:11:48 10° ENE
STARLINK-1106 3.5 23:04:11 10° WNW 23:08:20 80° SSW 23:10:51 23° ESE
STARLINK-1138 3.5 23:06:22 13° SW 23:09:55 61° SSE 23:14:01 10° ENE
STARLINK-1110 4.5 23:06:18 10° W 23:09:59 31° SW 23:10:18 31° SSW
ERBS 2.7 23:07:22 10° WSW 23:10:39 62° NNW 23:13:57 10° NE
Cosmos 2297 3.8 23:07:18 16° SW 23:11:57 78° WNW 23:17:43 10° NNE
STARLINK-1203 3.6 23:08:10 10° SW 23:12:20 64° SSE 23:16:30 10° ENE
Cosmos 1242 Rocket 2.8 23:11:36 41° SE 23:12:28 53° E 23:16:05 10° NNE
STARLINK-1233 3.8 23:08:28 10° W 23:12:37 72° N 23:16:46 10° ENE
STARLINK-1112 3.5 23:09:11 10° WNW 23:13:20 77° SSW 23:15:39 25° ESE
ATLAS 3B R/B 3.7 23:08:23 10° NW 23:14:50 46° NNE 23:21:28 10° ESE
STARLINK-1143 3.5 23:11:10 12° SW 23:14:53 64° SSE 23:19:01 10° ENE
NOSS 2-2 (E) 3.1 23:15:11 37° SSW 23:16:33 71° SE 23:20:46 10° NE
STARLINK-1204 3.9 23:13:28 10° W 23:17:37 70° N 23:21:46 10° ENE
STARLINK-1128 3.5 23:14:10 10° WNW 23:18:18 73° SSW 23:20:26 28° SE
CENTAUR R/B 3.3 23:11:05 10° NW 23:18:55 75° NE 23:27:39 10° SE
Cosmos 1470 2.6 23:15:27 10° N 23:19:22 90° NW 23:20:37 42° S
STARLINK-1241 3.5 23:15:54 11° WSW 23:19:51 68° SSE 23:23:59 10° ENE
STARLINK-1238 3.9 23:18:26 10° W 23:22:34 69° N 23:26:44 10° ENE
Cosmos 2082 Rocket 4.1 23:19:21 10° WNW 23:23:11 19° W 23:26:09 13° SW
STARLINK-1113 3.5 23:19:08 10° WNW 23:23:17 70° SSW 23:25:12 30° SE
SeaSat 1 3.1 23:18:33 10° NNE 23:23:22 54° NW 23:28:04 11° SW
STARLINK-1239 3.5 23:20:42 10° WSW 23:24:49 71° SSE 23:28:58 10° ENE
Aureole 2 Rocket 3.6 23:23:16 20° WSW 23:24:53 34° WNW 23:27:44 10° N
EO 1 Del DPAF 4.2 23:23:01 10° N 23:26:35 40° WNW 23:28:37 22° SW
STARLINK-1201 3.9 23:23:27 10° W 23:27:35 68° N 23:31:44 10° ENE
Cosmos 1110 Rocket 4.5 23:23:40 16° SW 23:27:42 57° WNW 23:32:49 10° NNE
STARLINK-1119 3.5 23:24:07 10° WNW 23:28:15 66° SSW 23:29:59 33° SE
BREEZE-M DEB 3.7 23:25:31 10° WSW 23:28:54 68° SSE 23:40:27 10° E
STARLINK-1240 3.5 23:25:40 10° WSW 23:29:48 75° SSE 23:33:58 10° ENE
BREEZE-M DEB (TANK) 2.8 23:26:45 10° W 23:30:17 66° S 23:34:43 10° ESE
Cosmos 1867 4.3 23:25:22 10° NW 23:30:44 52° NE 23:36:03 10° ESE
Okean 2 4.4 23:29:56 22° SW 23:32:07 41° WNW 23:36:05 10° N
STARLINK-1206 4.0 23:28:26 10° W 23:32:34 67° N 23:36:43 10° ENE
STARLINK-1114 3.6 23:29:07 10° WNW 23:33:14 62° SSW 23:34:46 35° SE
Cosmos 1455 Rocket 3.8 23:30:25 10° NNW 23:34:32 41° W 23:36:14 28° SW
STARLINK-1216 3.5 23:30:38 10° WSW 23:34:47 78° SSE 23:38:56 10° ENE
Cosmos 968 Rocket 3.4 23:30:14 10° NNW 23:35:27 88° ENE 23:38:02 30° SSE
Helios 1A 2.9 23:33:57 37° SSE 23:35:34 83° ENE 23:39:45 10° NNW
ISS -1.3 23:33:41 10° W 23:34:16 12° WSW 23:34:16 12° WSW
Cosmos 1354 Rocket 4.3 23:31:07 10° NNW 23:36:24 63° ENE 23:39:37 23° SE
STARLINK-1205 4.0 23:33:26 10° W 23:37:34 66° N 23:41:42 10° ENE
STARLINK-1130 (DARKSAT) 3.6 23:34:05 10° WNW 23:38:10 59° SSW 23:39:32 37° SSE
NOSS 2-2 (C) 3.1 23:37:49 34° SW 23:39:21 89° NW 23:43:32 10° NE
ATLAS 2AS CENTAUR R/B 3.7 23:35:53 25° SSE 23:39:41 38° ESE 23:46:50 10° NE
STARLINK-1237 3.5 23:35:37 10° WSW 23:39:46 82° SSE 23:43:56 10° ENE
Cosmos 2369 Rocket 2.2 23:38:59 30° S 23:41:48 67° ESE 23:47:26 10° NE
Cosmos 1842 4.3 23:40:42 24° SW 23:42:30 39° WNW 23:46:12 10° N
STARLINK-1218 4.0 23:38:25 10° W 23:42:33 65° N 23:46:41 10° E
STARLINK-1084 3.6 23:39:04 10° WNW 23:43:09 56° SSW 23:44:19 40° SSE
Cosmos 1486 Rocket 4.1 23:39:11 10° NNW 23:44:28 65° WSW 23:46:50 32° S
STARLINK-1202 3.5 23:40:36 10° WSW 23:44:45 85° SSE 23:48:55 10° ENE
NOSS 3-2 (A) 4.1 23:37:39 10° NW 23:44:58 62° SW 23:50:12 24° SSE
Meteor 1-21 4.4 23:43:32 26° SSW 23:46:50 68° WNW 23:52:28 10° N
Cosmos 1025 Rocket 2.9 23:45:35 38° S 23:47:09 89° W 23:51:29 10° N
STARLINK-1254 4.0 23:43:25 10° W 23:47:33 65° N 23:51:41 10° E
STARLINK-1098 3.7 23:44:05 10° WNW 23:48:07 52° SSW 23:49:07 41° SSE
Cosmos 2315 Rocket 4.3 23:42:12 10° N 23:48:21 60° ENE 23:52:12 23° SSE
Helios 1B rocket 3.6 23:47:52 10° NNE 23:51:35 31° E 23:52:51 26° SE
USA 238 DEB 4.0 23:45:15 10° NW 23:52:15 55° SW 23:56:22 26° S
USA 238 4.0 23:45:21 10° NW 23:52:20 56° SW 23:56:29 26° S
Cosmos 1943 Rocket 2.2 23:49:04 24° SW 23:52:31 81° WNW 23:58:09 10° NNE
STARLINK-1231 4.0 23:48:26 10° W 23:52:34 64° N 23:56:42 10° E
STARLINK-1123 3.8 23:49:03 10° WNW 23:53:05 49° SSW 23:53:53 42° S
SL-8 R/B 3.9 23:49:25 10° W 23:54:01 45° SSW 23:55:50 31° SSE
STARLINK-1246 3.5 23:50:32 10° WSW 23:54:41 89° NNW 23:58:52 10° ENE
